When you browse on this site, cookies collect data to enhance your experience and personalize the content and advertising you see.
Visit our Privacy Policy to learn more. By continuing to use the site, you agree to this use of cookies and data.
  • In Portugal
  • List of Countries
  • For 7 days
  • Water Temperature
  • Satellite Maps
  • Weather Map
  • Weather Widgets
  • user-avatar
    Login

    Hourly Weather Balewo

    Today, 18 February, Monday

    Time Temperature Precipitation Wind Pressure Humidity
    00:00 +5°C° 0 mm 1 mps 761 mmHg 93%
    01:00 +3°C° 0 mm 0 mps 761 mmHg 94%
    02:00 +3°C° 0 mm 0 mps 761 mmHg 95%
    03:00 +2°C° 0 mm 0 mps 761 mmHg 95%
    04:00 +2°C° 0 mm 0 mps 761 mmHg 95%
    05:00 +3°C° 0 mm 1 mps 761 mmHg 95%
    06:00 +3°C° 0 mm 1 mps 761 mmHg 95%
    07:00 +3°C° 0 mm 1 mps 761 mmHg 95%
    08:00 +4°C° 0 mm 1 mps 761 mmHg 92%
    09:00 +4°C° 0 mm 2 mps 761 mmHg 89%
    10:00 +6°C° 0 mm 2 mps 761 mmHg 85%
    11:00 +7°C° 0 mm 3 mps 760 mmHg 81%
    12:00 +8°C° 0 mm 3 mps 760 mmHg 77%
    13:00 +8°C° 0 mm 4 mps 760 mmHg 73%
    14:00 +9°C° 0 mm 3 mps 759 mmHg 75%
    15:00 +8°C° 0 mm 3 mps 759 mmHg 77%
    16:00 +8°C° 0 mm 3 mps 759 mmHg 79%
    17:00 +7°C° 0 mm 3 mps 758 mmHg 82%
    18:00 +5°C° 0 mm 3 mps 758 mmHg 86%
    19:00 +5°C° 0 mm 4 mps 758 mmHg 89%
    20:00 +4°C° 0 mm 4 mps 757 mmHg 89%
    21:00 +4°C° 0 mm 4 mps 757 mmHg 89%
    22:00 +3°C° 0 mm 4 mps 757 mmHg 89%
    23:00 +3°C° 0 mm 3 mps 756 mmHg 88%

    Tomorrow, 19 February, Tuesday

    Time Temperature Precipitation Wind Pressure Humidity
    00:00 +3°C° 0 mm 3 mps 756 mmHg 87%
    01:00 +2°C° 0 mm 3 mps 756 mmHg 86%
    02:00 +2°C° 0 mm 3 mps 755 mmHg 85%
    03:00 +2°C° 0 mm 3 mps 755 mmHg 84%
    04:00 0°C° 0 mm 4 mps 754 mmHg 83%
    05:00 0°C° 0 mm 4 mps 754 mmHg 83%
    06:00 0°C° 0 mm 4 mps 753 mmHg 82%
    07:00 0°C° 0 mm 4 mps 753 mmHg 81%
    08:00 +1°C° 0 mm 5 mps 753 mmHg 77%
    09:00 +2°C° 0 mm 5 mps 752 mmHg 73%
    10:00 +4°C° 0 mm 6 mps 752 mmHg 69%
    11:00 +5°C° 0 mm 6 mps 752 mmHg 68%
    12:00 +7°C° 0 mm 6 mps 752 mmHg 66%
    13:00 +8°C° 0 mm 6 mps 751 mmHg 64%
    14:00 +8°C° 0 mm 6 mps 751 mmHg 68%
    15:00 +8°C° 0 mm 5 mps 751 mmHg 72%
    16:00 +7°C° 0 mm 4 mps 751 mmHg 75%
    17:00 +7°C° 0.3 mm 4 mps 751 mmHg 79%
    18:00 +6°C° 0.3 mm 4 mps 751 mmHg 82%
    19:00 +5°C° 0.3 mm 4 mps 751 mmHg 86%
    20:00 +5°C° 0 mm 4 mps 751 mmHg 86%
    21:00 +4°C° 0 mm 4 mps 752 mmHg 87%
    22:00 +4°C° 0 mm 4 mps 752 mmHg 87%
    23:00 +4°C° 0 mm 4 mps 752 mmHg 86%

    Day after tomorrow, 20 February, Wednesday

    Time Temperature Precipitation Wind Pressure Humidity
    00:00 +3°C° 0 mm 5 mps 752 mmHg 85%
    01:00 +3°C° 0 mm 5 mps 752 mmHg 85%
    02:00 +3°C° 0 mm 5 mps 752 mmHg 84%
    03:00 +2°C° 0 mm 5 mps 752 mmHg 83%
    04:00 +2°C° 0 mm 5 mps 752 mmHg 83%
    05:00 +2°C° 0.1 mm 5 mps 752 mmHg 83%
    06:00 +2°C° 0.1 mm 5 mps 753 mmHg 83%
    07:00 +2°C° 0.1 mm 5 mps 753 mmHg 83%
    08:00 +2°C° 0.1 mm 6 mps 753 mmHg 80%
    09:00 +3°C° 0.1 mm 6 mps 754 mmHg 77%
    10:00 +3°C° 0.1 mm 7 mps 754 mmHg 74%
    11:00 +4°C° 0 mm 7 mps 754 mmHg 71%
    12:00 +4°C° 0 mm 7 mps 755 mmHg 69%
    13:00 +5°C° 0 mm 7 mps 755 mmHg 67%
    14:00 +4°C° 0 mm 6 mps 755 mmHg 68%
    15:00 +4°C° 0 mm 6 mps 755 mmHg 70%
    16:00 +4°C° 0 mm 6 mps 756 mmHg 71%
    17:00 +5°C° 0 mm 5 mps 756 mmHg 75%
    18:00 +4°C° 0 mm 4 mps 756 mmHg 79%
    19:00 +4°C° 0 mm 4 mps 757 mmHg 82%
    20:00 +4°C° 0 mm 3 mps 757 mmHg 84%
    21:00 +3°C° 0 mm 3 mps 757 mmHg 87%
    22:00 +3°C° 0 mm 3 mps 757 mmHg 89%
    23:00 +3°C° 0.1 mm 3 mps 757 mmHg 90%

    21 February, Thursday

    Time Temperature Precipitation Wind Pressure Humidity
    00:00 +4°C° 0.1 mm 3 mps 757 mmHg 92%
    01:00 +4°C° 0.1 mm 3 mps 757 mmHg 94%
    02:00 +4°C° 0.6 mm 3 mps 757 mmHg 93%
    03:00 +4°C° 0.6 mm 3 mps 756 mmHg 93%
    04:00 +4°C° 0.6 mm 4 mps 756 mmHg 93%
    05:00 +4°C° 0.4 mm 4 mps 756 mmHg 93%
    06:00 +4°C° 0.4 mm 4 mps 756 mmHg 92%
    07:00 +4°C° 0.4 mm 4 mps 756 mmHg 92%
    08:00 +4°C° 0.9 mm 3 mps 756 mmHg 92%
    09:00 +4°C° 0.9 mm 3 mps 756 mmHg 93%
    10:00 +4°C° 0.9 mm 3 mps 756 mmHg 93%
    11:00 +5°C° 0.2 mm 3 mps 757 mmHg 92%
    12:00 +5°C° 0.2 mm 3 mps 757 mmHg 90%
    13:00 +7°C° 0.2 mm 3 mps 757 mmHg 88%
    14:00 +7°C° 0 mm 3 mps 757 mmHg 89%
    15:00 +6°C° 0 mm 2 mps 758 mmHg 90%
    16:00 +6°C° 0 mm 2 mps 758 mmHg 91%
    17:00 +5°C° 0.1 mm 2 mps 759 mmHg 90%
    18:00 +3°C° 0.1 mm 3 mps 760 mmHg 90%
    19:00 +1°C° 0.1 mm 4 mps 761 mmHg 89%
    20:00 +1°C° 0 mm 3 mps 761 mmHg 86%
    21:00 +1°C° 0 mm 3 mps 762 mmHg 83%
    22:00 0°C° 0 mm 3 mps 763 mmHg 79%
    23:00 0°C° 0 mm 3 mps 764 mmHg 77%

    22 February, Friday

    Time Temperature Precipitation Wind Pressure Humidity
    00:00 -1°C° 0 mm 2 mps 765 mmHg 75%
    01:00 -1°C° 0 mm 2 mps 765 mmHg 73%
    02:00 -2°C° 0 mm 2 mps 766 mmHg 70%
    03:00 -2°C° 0 mm 2 mps 767 mmHg 68%
    04:00 -2°C° 0 mm 3 mps 767 mmHg 65%
    05:00 -2°C° 0 mm 2 mps 768 mmHg 64%
    06:00 -2°C° 0 mm 2 mps 769 mmHg 62%
    07:00 -3°C° 0 mm 2 mps 770 mmHg 61%
    08:00 -2°C° 0 mm 2 mps 770 mmHg 55%
    09:00 -1°C° 0 mm 2 mps 771 mmHg 50%
    10:00 0°C° 0 mm 3 mps 772 mmHg 44%
    11:00 +1°C° 0 mm 2 mps 772 mmHg 41%
    12:00 +2°C° 0 mm 2 mps 772 mmHg 38%
    13:00 +3°C° 0 mm 2 mps 773 mmHg 34%
    14:00 +4°C° 0 mm 1 mps 773 mmHg 37%
    15:00 +4°C° 0 mm 1 mps 773 mmHg 39%
    16:00 +3°C° 0 mm 0 mps 773 mmHg 42%
    17:00 +3°C° 0 mm 1 mps 774 mmHg 44%
    18:00 +2°C° 0 mm 1 mps 774 mmHg 47%
    19:00 -1°C° 0 mm 2 mps 774 mmHg 49%
    20:00 -1°C° 0 mm 2 mps 774 mmHg 51%
    21:00 -1°C° 0 mm 2 mps 774 mmHg 52%
    22:00 -1°C° 0 mm 3 mps 775 mmHg 54%
    23:00 -1°C° 0 mm 3 mps 774 mmHg 54%

    23 February, Saturday

    Time Temperature Precipitation Wind Pressure Humidity
    00:00 -2°C° 0 mm 4 mps 774 mmHg 54%
    01:00 -2°C° 0 mm 4 mps 774 mmHg 55%
    02:00 -2°C° 0 mm 4 mps 774 mmHg 56%
    03:00 -2°C° 0 mm 4 mps 774 mmHg 57%
    04:00 -2°C° 0 mm 4 mps 773 mmHg 59%
    05:00 -2°C° 0 mm 4 mps 773 mmHg 60%
    06:00 -2°C° 0 mm 4 mps 773 mmHg 62%
    07:00 -2°C° 0 mm 4 mps 772 mmHg 64%
    08:00 -1°C° 0 mm 4 mps 772 mmHg 67%
    09:00 +1°C° 0 mm 5 mps 772 mmHg 70%
    10:00 +2°C° 0 mm 5 mps 771 mmHg 73%
    11:00 +3°C° 0 mm 5 mps 771 mmHg 75%
    12:00 +5°C° 0 mm 5 mps 771 mmHg 78%
    13:00 +5°C° 0 mm 6 mps 770 mmHg 80%
    14:00 +6°C° 0 mm 5 mps 770 mmHg 83%
    15:00 +6°C° 0 mm 5 mps 769 mmHg 85%
    16:00 +6°C° 0 mm 5 mps 769 mmHg 87%
    17:00 +5°C° 0 mm 4 mps 769 mmHg 88%
    18:00 +4°C° 0 mm 4 mps 769 mmHg 89%
    19:00 +4°C° 0 mm 3 mps 769 mmHg 91%
    20:00 +4°C° 0 mm 3 mps 768 mmHg 90%
    21:00 +3°C° 0 mm 3 mps 768 mmHg 90%
    22:00 +3°C° 0 mm 3 mps 768 mmHg 89%
    23:00 +3°C° 0 mm 3 mps 768 mmHg 89%
    Show more